AAL551 KPHL-KMIA

Flight info

Callsign AAL551
Flight time 2h 24m
Altitude 38000
Route OOD TEBEE HAYDO TRPOD Q409 CRPLR BGBRD Q101 SKARP Y313 HOAGG BNFSH2
Aircraft B772/H-SDE2E3FGHIJ5LORVWXY/LB1D1

Departure

Time 2026-05-03 22:24
Airport Philadelphia International Airport (KPHL)

Arrival

Time 2026-05-04 00:49
Airport Miami International Airport (KMIA)
Time Latitude Longitude Altitude Speed Heading
2026-05-03 21:50 39.87302 -75.24662 29 ft 0 kts 315°
2026-05-03 22:16 39.87295 -75.24653 30 ft 2 kts 344°
2026-05-03 22:16 39.87279 -75.24647 28 ft 2 kts
2026-05-03 22:16 39.87263 -75.24652 28 ft 2 kts 22°
2026-05-03 22:17 39.87248 -75.24662 27 ft 2 kts 37°
2026-05-03 22:17 39.87236 -75.24677 28 ft 2 kts 51°
2026-05-03 22:17 39.87230 -75.24689 29 ft 1 kts 67°
2026-05-03 22:17 39.87229 -75.24689 28 ft 0 kts 69°
2026-05-03 22:20 39.87241 -75.24634 28 ft 12 kts 76°
2026-05-03 22:20 39.87264 -75.24514 30 ft 14 kts 76°
2026-05-03 22:20 39.87288 -75.24394 30 ft 14 kts 75°
2026-05-03 22:21 39.87313 -75.24274 30 ft 14 kts 75°
2026-05-03 22:21 39.87231 -75.24148 30 ft 23 kts 155°
2026-05-03 22:21 39.87073 -75.24074 30 ft 20 kts 165°
2026-05-03 22:21 39.87048 -75.23955 30 ft 15 kts 77°
2026-05-03 22:22 39.87074 -75.23823 30 ft 15 kts 75°
2026-05-03 22:22 39.87102 -75.23692 29 ft 15 kts 75°
2026-05-03 22:22 39.87128 -75.23560 30 ft 15 kts 76°
2026-05-03 22:22 39.87101 -75.23461 30 ft 12 kts 160°
2026-05-03 22:23 39.87018 -75.23432 30 ft 12 kts 166°
2026-05-03 22:23 39.86935 -75.23409 30 ft 12 kts 179°
2026-05-03 22:23 39.86887 -75.23491 30 ft 12 kts 254°
2026-05-03 22:23 39.86831 -75.23767 30 ft 65 kts 256°
2026-05-03 22:24 39.86644 -75.24724 34 ft 149 kts 259°
2026-05-03 22:24 39.86308 -75.26122 656 ft 179 kts 245°
2026-05-03 22:24 39.85245 -75.27273 1444 ft 214 kts 203°
2026-05-03 22:24 39.83748 -75.27752 2207 ft 232 kts 195°
2026-05-03 22:25 39.82104 -75.28157 2682 ft 256 kts 193°
2026-05-03 22:25 39.80312 -75.28499 3430 ft 265 kts 191°
2026-05-03 22:25 39.78435 -75.28780 4350 ft 269 kts 189°
2026-05-03 22:25 39.76562 -75.29014 5279 ft 272 kts 188°
2026-05-03 22:26 39.74678 -75.29226 6084 ft 278 kts 188°
2026-05-03 22:26 39.72738 -75.29428 6900 ft 282 kts 188°
2026-05-03 22:26 39.70772 -75.29622 7731 ft 284 kts 188°
2026-05-03 22:26 39.68782 -75.29813 8545 ft 289 kts 188°
2026-05-03 22:27 39.66771 -75.30002 9378 ft 291 kts 188°
2026-05-03 22:27 39.64735 -75.30194 10156 ft 295 kts 188°
2026-05-03 22:27 39.62643 -75.30441 10566 ft 313 kts 191°
2026-05-03 22:27 39.60398 -75.30845 10773 ft 338 kts 192°
2026-05-03 22:28 39.57979 -75.31311 11033 ft 363 kts 192°
2026-05-03 22:28 39.55445 -75.31787 11794 ft 372 kts 192°
2026-05-03 22:28 39.52855 -75.32260 12807 ft 376 kts 192°
2026-05-03 22:28 39.50250 -75.32730 13979 ft 378 kts 193°
2026-05-03 22:29 39.47674 -75.33197 14986 ft 381 kts 193°
2026-05-03 22:29 39.45038 -75.33678 15933 ft 385 kts 193°
2026-05-03 22:29 39.42362 -75.34168 16904 ft 390 kts 194°
2026-05-03 22:29 39.39666 -75.34660 17913 ft 394 kts 194°
2026-05-03 22:30 39.36935 -75.35157 18865 ft 397 kts 194°
2026-05-03 22:30 39.34198 -75.35654 19752 ft 400 kts 194°
2026-05-03 22:30 39.31430 -75.36157 20608 ft 404 kts 194°
2026-05-03 22:30 39.28627 -75.36666 21433 ft 409 kts 194°
2026-05-03 22:31 39.25797 -75.37179 22267 ft 413 kts 194°
2026-05-03 22:31 39.22941 -75.37697 23057 ft 417 kts 194°
2026-05-03 22:31 39.20044 -75.38222 23748 ft 422 kts 194°
2026-05-03 22:31 39.17130 -75.38745 24376 ft 425 kts 195°
2026-05-03 22:32 39.14197 -75.39267 25058 ft 426 kts 195°
2026-05-03 22:32 39.11261 -75.39788 25696 ft 427 kts 195°
2026-05-03 22:32 39.08306 -75.40312 26272 ft 430 kts 195°
2026-05-03 22:32 39.05333 -75.40841 26821 ft 433 kts 196°
2026-05-03 22:33 39.02343 -75.41371 27390 ft 434 kts 196°
2026-05-03 22:33 38.99334 -75.41905 27892 ft 437 kts 196°
2026-05-03 22:33 38.96316 -75.42441 28333 ft 440 kts 197°
2026-05-03 22:33 38.93274 -75.42981 28759 ft 443 kts 197°
2026-05-03 22:34 38.90214 -75.43522 29217 ft 444 kts 197°
2026-05-03 22:34 38.87151 -75.44062 29650 ft 445 kts 197°
2026-05-03 22:34 38.84074 -75.44606 29993 ft 447 kts 197°
2026-05-03 22:34 38.81021 -75.45145 30256 ft 449 kts 197°
2026-05-03 22:35 38.77886 -75.45697 30517 ft 451 kts 197°
2026-05-03 22:35 38.74813 -75.46238 30772 ft 452 kts 197°
2026-05-03 22:35 38.71701 -75.46784 31081 ft 451 kts 197°
2026-05-03 22:35 38.68597 -75.47328 31420 ft 450 kts 197°
2026-05-03 22:36 38.65504 -75.47868 31813 ft 448 kts 197°
2026-05-03 22:36 38.62412 -75.48410 32146 ft 447 kts 197°
2026-05-03 22:36 38.59337 -75.48951 32451 ft 447 kts 197°
2026-05-03 22:36 38.56262 -75.49491 32770 ft 446 kts 197°
2026-05-03 22:37 38.53192 -75.50028 33162 ft 443 kts 197°
2026-05-03 22:37 38.50136 -75.50563 33507 ft 443 kts 197°
2026-05-03 22:37 38.47084 -75.51098 33834 ft 442 kts 197°
2026-05-03 22:37 38.44043 -75.51630 34172 ft 440 kts 197°
2026-05-03 22:38 38.41016 -75.52157 34523 ft 438 kts 198°
2026-05-03 22:38 38.38058 -75.52756 34788 ft 431 kts 202°
2026-05-03 22:38 38.35217 -75.53834 35033 ft 423 kts 208°
2026-05-03 22:38 38.32508 -75.55243 35296 ft 417 kts 212°
2026-05-03 22:39 38.29927 -75.56871 35619 ft 411 kts 217°
2026-05-03 22:39 38.27547 -75.58825 35882 ft 406 kts 220°
2026-05-03 22:39 38.25220 -75.60865 36114 ft 406 kts 221°
2026-05-03 22:39 38.22897 -75.62919 36352 ft 406 kts 221°
2026-05-03 22:40 38.20582 -75.64962 36645 ft 404 kts 221°
2026-05-03 22:40 38.18267 -75.66996 36905 ft 404 kts 220°
2026-05-03 22:40 38.15949 -75.69024 37138 ft 404 kts 220°
2026-05-03 22:40 38.13631 -75.71043 37388 ft 403 kts 220°
2026-05-03 22:41 38.11315 -75.73055 37673 ft 402 kts 220°
2026-05-03 22:41 38.09001 -75.75062 37896 ft 402 kts 220°
2026-05-03 22:41 38.06685 -75.77070 37985 ft 404 kts 220°
2026-05-03 22:42 38.02065 -75.81069 38061 ft 403 kts 220°
2026-05-03 22:42 37.97459 -75.85045 38054 ft 399 kts 220°
2026-05-03 22:43 37.92869 -75.89006 38059 ft 398 kts 220°
2026-05-03 22:43 37.88292 -75.92951 38057 ft 397 kts 220°
2026-05-03 22:44 37.83718 -75.96885 38062 ft 397 kts 220°
2026-05-03 22:44 37.79142 -76.00817 38063 ft 397 kts 220°
2026-05-03 22:45 37.74565 -76.04743 38119 ft 399 kts 220°
2026-05-03 22:45 37.70014 -76.08640 38076 ft 397 kts 220°
2026-05-03 22:46 37.65450 -76.12540 38074 ft 397 kts 219°
2026-05-03 22:46 37.60439 -76.15671 38077 ft 407 kts 210°
2026-05-03 22:47 37.55015 -76.17932 38072 ft 417 kts 201°
2026-05-03 22:47 37.49278 -76.19253 38080 ft 420 kts 199°
2026-05-03 22:48 37.43504 -76.20475 38078 ft 420 kts 199°
2026-05-03 22:48 37.37744 -76.21718 38084 ft 419 kts 200°
2026-05-03 22:49 37.32015 -76.22979 38073 ft 418 kts 200°
2026-05-03 22:49 37.26327 -76.24239 38064 ft 417 kts 200°
2026-05-03 22:50 37.20612 -76.25506 38059 ft 416 kts 200°
2026-05-03 22:50 37.14918 -76.26765 38056 ft 415 kts 200°
2026-05-03 22:51 37.09233 -76.28020 38054 ft 414 kts 200°
2026-05-03 22:51 37.03563 -76.29270 38059 ft 413 kts 200°
2026-05-03 22:52 36.97899 -76.30517 38073 ft 413 kts 200°
2026-05-03 22:52 36.93210 -76.31547 38076 ft 412 kts 200°
2026-05-03 22:53 36.87564 -76.32787 38081 ft 411 kts 200°
2026-05-03 22:53 36.81930 -76.34021 38073 ft 410 kts 200°
2026-05-03 22:54 36.76307 -76.35252 38078 ft 410 kts 200°
2026-05-03 22:54 36.70694 -76.36478 38075 ft 409 kts 200°
2026-05-03 22:55 36.65098 -76.37699 38075 ft 408 kts 200°
2026-05-03 22:55 36.59505 -76.38917 38078 ft 408 kts 200°
2026-05-03 22:56 36.53920 -76.40132 38075 ft 407 kts 200°
2026-05-03 22:56 36.48379 -76.41336 38075 ft 406 kts 200°
2026-05-03 22:57 36.42812 -76.42543 38074 ft 405 kts 200°
2026-05-03 22:57 36.37257 -76.43746 38076 ft 405 kts 200°
2026-05-03 22:58 36.31709 -76.44947 38071 ft 404 kts 200°
2026-05-03 22:58 36.26175 -76.46141 38074 ft 403 kts 200°
2026-05-03 22:59 36.20649 -76.47334 38099 ft 402 kts 200°
2026-05-03 22:59 36.15173 -76.48513 38096 ft 402 kts 200°
2026-05-03 23:00 36.09663 -76.49698 38094 ft 401 kts 200°
2026-05-03 23:00 36.04164 -76.50879 38096 ft 401 kts 200°
2026-05-03 23:01 35.98676 -76.52057 38089 ft 400 kts 200°
2026-05-03 23:01 35.93204 -76.53272 38094 ft 395 kts 203°
2026-05-03 23:02 35.88060 -76.55245 38094 ft 386 kts 208°
2026-05-03 23:02 35.83194 -76.57893 38094 ft 379 kts 213°
2026-05-03 23:03 35.78481 -76.60815 38091 ft 379 kts 214°
2026-05-03 23:03 35.73777 -76.63735 38103 ft 379 kts 214°
2026-05-03 23:04 35.69060 -76.66644 38097 ft 377 kts 213°
2026-05-03 23:04 35.64361 -76.69532 38097 ft 377 kts 213°
2026-05-03 23:05 35.59682 -76.72402 38101 ft 378 kts 213°
2026-05-03 23:05 35.54966 -76.75290 38096 ft 379 kts 213°
2026-05-03 23:06 35.50236 -76.78182 38097 ft 380 kts 213°
2026-05-03 23:06 35.45507 -76.81071 38099 ft 380 kts 213°
2026-05-03 23:07 35.40763 -76.83964 38099 ft 380 kts 213°
2026-05-03 23:07 35.36023 -76.86851 38099 ft 381 kts 213°
2026-05-03 23:08 35.31278 -76.89738 38099 ft 381 kts 213°
2026-05-03 23:08 35.26525 -76.92626 38099 ft 381 kts 213°
2026-05-03 23:09 35.21814 -76.95507 38101 ft 381 kts 214°
2026-05-03 23:09 35.17095 -76.98468 38101 ft 381 kts 214°
2026-05-03 23:10 35.12388 -77.01427 38103 ft 381 kts 214°
2026-05-03 23:10 35.07671 -77.04381 38100 ft 381 kts 214°
2026-05-03 23:11 35.02940 -77.07337 38104 ft 381 kts 214°
2026-05-03 23:11 34.98211 -77.10286 38099 ft 382 kts 214°
2026-05-03 23:12 34.93478 -77.13234 38100 ft 382 kts 214°
2026-05-03 23:12 34.88745 -77.16178 38097 ft 382 kts 214°
2026-05-03 23:13 34.84009 -77.19119 38099 ft 382 kts 214°
2026-05-03 23:13 34.79297 -77.22043 38096 ft 382 kts 214°
2026-05-03 23:14 34.74555 -77.24981 38089 ft 383 kts 214°
2026-05-03 23:14 34.69810 -77.27918 38095 ft 382 kts 214°
2026-05-03 23:15 34.65068 -77.30849 38091 ft 383 kts 214°
2026-05-03 23:15 34.60321 -77.33779 38095 ft 383 kts 214°
2026-05-03 23:16 34.55570 -77.36709 38097 ft 383 kts 214°
2026-05-03 23:16 34.50720 -77.39463 38109 ft 389 kts 208°
2026-05-03 23:17 34.45524 -77.41463 38101 ft 395 kts 205°
2026-05-03 23:17 34.40064 -77.42745 38106 ft 402 kts 200°
2026-05-03 23:18 34.34523 -77.43798 38106 ft 403 kts 199°
2026-05-03 23:18 34.29023 -77.44845 38111 ft 402 kts 200°
2026-05-03 23:19 34.23499 -77.45915 38116 ft 402 kts 200°
2026-05-03 23:19 34.17985 -77.46990 38113 ft 401 kts 200°
2026-05-03 23:20 34.12469 -77.48067 38118 ft 401 kts 200°
2026-05-03 23:20 34.06955 -77.49141 38117 ft 401 kts 200°
2026-05-03 23:21 34.01447 -77.50214 38121 ft 401 kts 200°
2026-05-03 23:21 33.95944 -77.51283 38130 ft 401 kts 200°
2026-05-03 23:22 33.87677 -77.52887 38124 ft 401 kts 200°
2026-05-03 23:22 33.82206 -77.53947 38130 ft 401 kts 200°
2026-05-03 23:23 33.76692 -77.55013 38128 ft 401 kts 200°
2026-05-03 23:23 33.71180 -77.56078 38135 ft 401 kts 200°
2026-05-03 23:24 33.65664 -77.57143 38137 ft 402 kts 200°
2026-05-03 23:24 33.60149 -77.58206 38137 ft 402 kts 200°
2026-05-03 23:25 33.54783 -77.59730 38138 ft 392 kts 206°
2026-05-03 23:25 33.49536 -77.61591 38139 ft 393 kts 206°
2026-05-03 23:26 33.44282 -77.63438 38140 ft 394 kts 206°
2026-05-03 23:26 33.39024 -77.65278 38143 ft 394 kts 206°
2026-05-03 23:27 33.33760 -77.67116 38142 ft 394 kts 205°
2026-05-03 23:27 33.28492 -77.68953 38149 ft 394 kts 206°
2026-05-03 23:28 33.23261 -77.70775 38143 ft 394 kts 205°
2026-05-03 23:28 33.17987 -77.72610 38152 ft 394 kts 205°
2026-05-03 23:29 33.12716 -77.74442 38141 ft 395 kts 205°
2026-05-03 23:29 33.07435 -77.76273 38326 ft 395 kts 207°
2026-05-03 23:30 33.02126 -77.78117 38201 ft 398 kts 207°
2026-05-03 23:30 32.96794 -77.79963 38150 ft 399 kts 207°
2026-05-03 23:31 32.91487 -77.81796 38145 ft 399 kts 207°
2026-05-03 23:31 32.86168 -77.83632 38151 ft 398 kts 207°
2026-05-03 23:32 32.80845 -77.85468 38152 ft 397 kts 207°
2026-05-03 23:32 32.75537 -77.87296 38144 ft 396 kts 207°
2026-05-03 23:33 32.70243 -77.89119 38147 ft 396 kts 206°
2026-05-03 23:33 32.64948 -77.90921 38150 ft 396 kts 206°
2026-05-03 23:34 32.59627 -77.92646 38152 ft 396 kts 206°
2026-05-03 23:34 32.54311 -77.94355 38162 ft 396 kts 206°
2026-05-03 23:35 32.48995 -77.96070 38160 ft 396 kts 206°
2026-05-03 23:35 32.43686 -77.97786 38151 ft 395 kts 206°
2026-05-03 23:36 32.38402 -77.99492 38148 ft 395 kts 206°
2026-05-03 23:36 32.33091 -78.01206 38154 ft 395 kts 205°
2026-05-03 23:37 32.27784 -78.02916 38148 ft 395 kts 205°
2026-05-03 23:37 32.22475 -78.04625 38151 ft 395 kts 205°
2026-05-03 23:38 32.17162 -78.06333 38147 ft 395 kts 205°
2026-05-03 23:38 32.11888 -78.08027 38151 ft 395 kts 205°
2026-05-03 23:39 32.06585 -78.09727 38148 ft 395 kts 205°
2026-05-03 23:39 32.01279 -78.11427 38148 ft 395 kts 205°
2026-05-03 23:40 31.95979 -78.13123 38153 ft 395 kts 205°
2026-05-03 23:40 31.90672 -78.14818 38151 ft 395 kts 205°
2026-05-03 23:41 31.85367 -78.16512 38152 ft 395 kts 205°
2026-05-03 23:41 31.80965 -78.17915 38150 ft 395 kts 205°
2026-05-03 23:42 31.75659 -78.19605 38151 ft 395 kts 205°
2026-05-03 23:42 31.70353 -78.21293 38149 ft 395 kts 205°
2026-05-03 23:43 31.65052 -78.22977 38147 ft 395 kts 205°
2026-05-03 23:43 31.59746 -78.24661 38144 ft 395 kts 205°
2026-05-03 23:44 31.54435 -78.26345 38144 ft 395 kts 205°
2026-05-03 23:44 31.49133 -78.28024 38147 ft 395 kts 205°
2026-05-03 23:45 31.43831 -78.29733 38146 ft 394 kts 205°
2026-05-03 23:45 31.38568 -78.31504 38145 ft 394 kts 206°
2026-05-03 23:46 31.33326 -78.33271 38143 ft 393 kts 206°
2026-05-03 23:46 31.28063 -78.35037 38145 ft 394 kts 206°
2026-05-03 23:47 31.22800 -78.36796 38143 ft 394 kts 206°
2026-05-03 23:47 31.17533 -78.38554 38145 ft 394 kts 206°
2026-05-03 23:48 31.12260 -78.40310 38148 ft 394 kts 205°
2026-05-03 23:48 31.06984 -78.42066 38142 ft 394 kts 205°
2026-05-03 23:49 31.01712 -78.43819 38138 ft 394 kts 205°
2026-05-03 23:49 30.96471 -78.45560 38142 ft 394 kts 205°
2026-05-03 23:50 30.91197 -78.47309 38141 ft 394 kts 205°
2026-05-03 23:50 30.85915 -78.49059 38142 ft 395 kts 205°
2026-05-03 23:51 30.80630 -78.50808 38140 ft 395 kts 205°
2026-05-03 23:51 30.75346 -78.52555 38138 ft 395 kts 205°
2026-05-03 23:52 30.70052 -78.54303 38139 ft 395 kts 205°
2026-05-03 23:52 30.64756 -78.56050 38130 ft 396 kts 205°
2026-05-03 23:53 30.59457 -78.57795 38129 ft 396 kts 205°
2026-05-03 23:53 30.54190 -78.59528 38123 ft 396 kts 206°
2026-05-03 23:54 30.48888 -78.61272 38125 ft 396 kts 206°
2026-05-03 23:54 30.43574 -78.63016 38129 ft 397 kts 206°
2026-05-03 23:55 30.38255 -78.64761 38128 ft 397 kts 206°
2026-05-03 23:55 30.32940 -78.66502 38129 ft 397 kts 206°
2026-05-03 23:56 30.27620 -78.68244 38125 ft 398 kts 206°
2026-05-03 23:56 30.22326 -78.69974 38129 ft 398 kts 206°
2026-05-03 23:57 30.16995 -78.71715 38119 ft 398 kts 206°
2026-05-03 23:57 30.11664 -78.73459 38128 ft 398 kts 206°
2026-05-03 23:58 30.06322 -78.75205 38109 ft 399 kts 206°
2026-05-03 23:58 30.00969 -78.76953 38121 ft 399 kts 206°
2026-05-03 23:59 29.95619 -78.78697 38119 ft 400 kts 206°
2026-05-03 23:59 29.90262 -78.80442 38116 ft 400 kts 206°
2026-05-04 00:00 29.84898 -78.82188 38114 ft 401 kts 206°
2026-05-04 00:00 29.79560 -78.83922 38112 ft 401 kts 206°
2026-05-04 00:01 29.73981 -78.85096 38113 ft 413 kts 198°
2026-05-04 00:01 29.68232 -78.85790 38112 ft 416 kts 197°
2026-05-04 00:02 29.62476 -78.86482 38111 ft 416 kts 198°
2026-05-04 00:02 29.56728 -78.87224 38104 ft 416 kts 198°
2026-05-04 00:03 29.50973 -78.87992 38113 ft 416 kts 198°
2026-05-04 00:03 29.45212 -78.88767 38102 ft 417 kts 198°
2026-05-04 00:04 29.39450 -78.89541 38102 ft 417 kts 198°
2026-05-04 00:04 29.33666 -78.90316 38109 ft 418 kts 198°
2026-05-04 00:05 29.27885 -78.91090 38098 ft 419 kts 198°
2026-05-04 00:05 29.22137 -78.91858 38102 ft 419 kts 198°
2026-05-04 00:06 29.16331 -78.92634 38087 ft 419 kts 198°
2026-05-04 00:06 29.10532 -78.93407 38099 ft 420 kts 198°
2026-05-04 00:07 29.04720 -78.94181 38091 ft 421 kts 198°
2026-05-04 00:07 28.98894 -78.94957 38090 ft 421 kts 198°
2026-05-04 00:08 28.93064 -78.95732 38086 ft 422 kts 198°
2026-05-04 00:08 28.87227 -78.96506 38092 ft 423 kts 198°
2026-05-04 00:09 28.81375 -78.97283 38090 ft 423 kts 198°
2026-05-04 00:09 28.75556 -78.98054 38088 ft 424 kts 198°
2026-05-04 00:10 28.69695 -78.98829 38083 ft 425 kts 198°
2026-05-04 00:10 28.63816 -78.99606 38084 ft 425 kts 198°
2026-05-04 00:11 28.57935 -79.00382 38083 ft 426 kts 198°
2026-05-04 00:11 28.52043 -79.01159 38078 ft 426 kts 198°
2026-05-04 00:12 28.46138 -79.01937 38075 ft 427 kts 198°
2026-05-04 00:12 28.40236 -79.02714 38078 ft 427 kts 198°
2026-05-04 00:13 28.34378 -79.03510 38080 ft 424 kts 200°
2026-05-04 00:13 28.31558 -79.04302 38086 ft 413 kts 207°
2026-05-04 00:13 28.28840 -79.05313 38074 ft 411 kts 208°
2026-05-04 00:14 28.23432 -79.07447 38067 ft 411 kts 208°
2026-05-04 00:14 28.18005 -79.09548 38070 ft 413 kts 208°
2026-05-04 00:15 28.12548 -79.11604 38065 ft 414 kts 208°
2026-05-04 00:15 28.07068 -79.13645 38066 ft 415 kts 207°
2026-05-04 00:16 28.01574 -79.15686 38064 ft 416 kts 207°
2026-05-04 00:16 27.96066 -79.17730 38061 ft 417 kts 207°
2026-05-04 00:17 27.90555 -79.19774 38061 ft 417 kts 207°
2026-05-04 00:17 27.85022 -79.21824 38058 ft 418 kts 207°
2026-05-04 00:18 27.79495 -79.23870 38059 ft 419 kts 207°
2026-05-04 00:18 27.73948 -79.25920 38055 ft 419 kts 207°
2026-05-04 00:19 27.68399 -79.27970 38051 ft 420 kts 207°
2026-05-04 00:19 27.62880 -79.30006 38049 ft 421 kts 207°
2026-05-04 00:20 27.57313 -79.32058 38045 ft 421 kts 207°
2026-05-04 00:20 27.51729 -79.34114 38042 ft 421 kts 207°
2026-05-04 00:21 27.46152 -79.36165 38041 ft 422 kts 207°
2026-05-04 00:21 27.40558 -79.38220 38038 ft 422 kts 207°
2026-05-04 00:22 27.35000 -79.40260 38035 ft 422 kts 207°
2026-05-04 00:22 27.29391 -79.42320 37250 ft 429 kts 207°
2026-05-04 00:23 27.26560 -79.43357 36547 ft 430 kts 206°
2026-05-04 00:23 27.23645 -79.44431 35892 ft 449 kts 206°
2026-05-04 00:23 27.20669 -79.45523 35391 ft 445 kts 205°
2026-05-04 00:23 27.17788 -79.46560 34682 ft 424 kts 205°
2026-05-04 00:24 27.14981 -79.47577 33470 ft 430 kts 205°
2026-05-04 00:24 27.12107 -79.48638 32419 ft 441 kts 205°
2026-05-04 00:24 27.09159 -79.49721 31510 ft 449 kts 204°
2026-05-04 00:24 27.06172 -79.50810 30729 ft 453 kts 204°
2026-05-04 00:25 27.03175 -79.51899 30208 ft 452 kts 204°
2026-05-04 00:25 27.00200 -79.52980 29770 ft 448 kts 204°
2026-05-04 00:25 26.97245 -79.54054 29399 ft 445 kts 204°
2026-05-04 00:25 26.94315 -79.55121 29050 ft 442 kts 204°
2026-05-04 00:26 26.91396 -79.56184 28703 ft 440 kts 204°
2026-05-04 00:26 26.88507 -79.57233 28249 ft 432 kts 204°
2026-05-04 00:26 26.85650 -79.58266 27572 ft 431 kts 204°
2026-05-04 00:26 26.82830 -79.59283 26897 ft 430 kts 204°
2026-05-04 00:27 26.79983 -79.60309 26290 ft 429 kts 204°
2026-05-04 00:27 26.77147 -79.61331 25790 ft 426 kts 204°
2026-05-04 00:27 26.74329 -79.62345 25337 ft 423 kts 204°
2026-05-04 00:27 26.71530 -79.63353 24901 ft 421 kts 204°
2026-05-04 00:28 26.68748 -79.64356 24509 ft 419 kts 204°
2026-05-04 00:28 26.65990 -79.65347 24445 ft 410 kts 204°
2026-05-04 00:28 26.63303 -79.66310 24377 ft 399 kts 204°
2026-05-04 00:28 26.60711 -79.67229 23911 ft 384 kts 204°
2026-05-04 00:29 26.58197 -79.68107 23042 ft 371 kts 203°
2026-05-04 00:29 26.55770 -79.68955 22164 ft 361 kts 203°
2026-05-04 00:29 26.53431 -79.69775 21336 ft 356 kts 203°
2026-05-04 00:29 26.51068 -79.70604 20506 ft 353 kts 203°
2026-05-04 00:30 26.48731 -79.71423 19710 ft 351 kts 202°
2026-05-04 00:30 26.46456 -79.72350 18925 ft 345 kts 212°
2026-05-04 00:30 26.44514 -79.73900 18145 ft 342 kts 227°
2026-05-04 00:30 26.42926 -79.75832 17288 ft 334 kts 230°
2026-05-04 00:31 26.41912 -79.77110 16731 ft 330 kts 230°
2026-05-04 00:31 26.40387 -79.79003 15917 ft 325 kts 230°
2026-05-04 00:31 26.38866 -79.80867 15112 ft 324 kts 230°
2026-05-04 00:31 26.37442 -79.82814 14837 ft 322 kts 236°
2026-05-04 00:32 26.36185 -79.84873 14623 ft 321 kts 237°
2026-05-04 00:32 26.34956 -79.86919 14419 ft 313 kts 237°
2026-05-04 00:32 26.33737 -79.88904 14198 ft 304 kts 237°
2026-05-04 00:32 26.32550 -79.90811 13995 ft 296 kts 237°
2026-05-04 00:33 26.31390 -79.92670 13791 ft 288 kts 236°
2026-05-04 00:33 26.29126 -79.96287 13387 ft 282 kts 237°
2026-05-04 00:33 26.28030 -79.98034 13211 ft 281 kts 237°
2026-05-04 00:34 26.26883 -79.99862 13017 ft 280 kts 237°
2026-05-04 00:34 26.25644 -80.01470 12824 ft 280 kts 221°
2026-05-04 00:34 26.23902 -80.02542 12656 ft 293 kts 202°
2026-05-04 00:34 26.21915 -80.03078 12471 ft 296 kts 195°
2026-05-04 00:35 26.19888 -80.03515 12273 ft 295 kts 195°
2026-05-04 00:35 26.17870 -80.03944 12062 ft 295 kts 195°
2026-05-04 00:35 26.15854 -80.04381 11875 ft 295 kts 195°
2026-05-04 00:35 26.13845 -80.04827 11670 ft 295 kts 195°
2026-05-04 00:36 26.11835 -80.05280 11477 ft 294 kts 195°
2026-05-04 00:36 26.09828 -80.05737 11280 ft 294 kts 195°
2026-05-04 00:36 26.07835 -80.06191 11089 ft 294 kts 195°
2026-05-04 00:36 26.05834 -80.06666 10862 ft 294 kts 197°
2026-05-04 00:37 26.03841 -80.07184 10615 ft 293 kts 197°
2026-05-04 00:37 26.01885 -80.07700 10377 ft 292 kts 197°
2026-05-04 00:37 25.99919 -80.08217 10131 ft 288 kts 197°
2026-05-04 00:37 25.97988 -80.08720 9889 ft 282 kts 197°
2026-05-04 00:38 25.96092 -80.09212 9624 ft 277 kts 197°
2026-05-04 00:38 25.94232 -80.09694 9369 ft 271 kts 197°
2026-05-04 00:38 25.92474 -80.10317 9157 ft 262 kts 213°
2026-05-04 00:38 25.91089 -80.11599 8958 ft 260 kts 230°
2026-05-04 00:39 25.89882 -80.13105 8749 ft 263 kts 230°
2026-05-04 00:39 25.88682 -80.14639 8522 ft 261 kts 237°
2026-05-04 00:39 25.87968 -80.16466 8298 ft 260 kts 258°
2026-05-04 00:39 25.87818 -80.18472 8097 ft 261 kts 268°
2026-05-04 00:40 25.87785 -80.20549 7819 ft 293 kts 268°
2026-05-04 00:40 25.87724 -80.23041 7698 ft 352 kts 268°
2026-05-04 00:40 25.87642 -80.25835 7174 ft 370 kts 268°
2026-05-04 00:40 25.87715 -80.28614 6708 ft 344 kts 279°
2026-05-04 00:41 25.88474 -80.31068 6538 ft 329 kts 295°
2026-05-04 00:41 25.89547 -80.33235 6427 ft 312 kts 297°
2026-05-04 00:41 25.90583 -80.35302 6202 ft 301 kts 297°
2026-05-04 00:41 25.91570 -80.37305 5946 ft 292 kts 296°
2026-05-04 00:42 25.92520 -80.39249 5681 ft 285 kts 297°
2026-05-04 00:42 25.93427 -80.41173 5369 ft 274 kts 291°
2026-05-04 00:42 25.93782 -80.43199 5071 ft 263 kts 269°
2026-05-04 00:42 25.93729 -80.45165 5041 ft 244 kts 268°
2026-05-04 00:43 25.93693 -80.46995 5012 ft 232 kts 268°
2026-05-04 00:43 25.93574 -80.48779 4694 ft 233 kts 257°
2026-05-04 00:43 25.92775 -80.50345 4156 ft 241 kts 225°
2026-05-04 00:43 25.91283 -80.51217 3638 ft 250 kts 193°
2026-05-04 00:44 25.89549 -80.51079 3233 ft 253 kts 160°
2026-05-04 00:44 25.88167 -80.49966 3044 ft 246 kts 128°
2026-05-04 00:44 25.87562 -80.48273 3000 ft 230 kts 97°
2026-05-04 00:44 25.87385 -80.46569 3007 ft 222 kts 101°
2026-05-04 00:45 25.87012 -80.44923 2889 ft 221 kts 109°
2026-05-04 00:45 25.86467 -80.43364 2605 ft 209 kts 113°
2026-05-04 00:45 25.85892 -80.41968 2335 ft 190 kts 117°
2026-05-04 00:45 25.85286 -80.40738 2099 ft 173 kts 120°
2026-05-04 00:46 25.84721 -80.39633 1867 ft 157 kts 119°
2026-05-04 00:46 25.84191 -80.38594 1700 ft 152 kts 119°
2026-05-04 00:46 25.83669 -80.37568 1493 ft 153 kts 119°
2026-05-04 00:46 25.83144 -80.36538 1294 ft 154 kts 119°
2026-05-04 00:47 25.82618 -80.35506 1088 ft 153 kts 119°
2026-05-04 00:47 25.82095 -80.34481 894 ft 152 kts 118°
2026-05-04 00:47 25.81587 -80.33485 689 ft 145 kts 118°
2026-05-04 00:47 25.81101 -80.32534 517 ft 138 kts 118°
2026-05-04 00:48 25.80624 -80.31598 355 ft 141 kts 118°
2026-05-04 00:48 25.80149 -80.30666 153 ft 129 kts 119°
2026-05-04 00:48 25.79763 -80.29906 26 ft 101 kts 118°
2026-05-04 00:48 25.79473 -80.29339 20 ft 61 kts 120°
2026-05-04 00:49 25.79318 -80.29037 18 ft 30 kts 115°
2026-05-04 00:49 25.79325 -80.28881 19 ft 14 kts 62°
2026-05-04 00:49 25.79339 -80.28853 19 ft 0 kts 60°
2026-05-04 00:50 25.79344 -80.28844 19 ft 7 kts 60°
2026-05-04 00:50 25.79414 -80.28801 19 ft 17 kts 360°
2026-05-04 00:50 25.79550 -80.28807 19 ft 21 kts 356°
2026-05-04 00:51 25.79693 -80.28814 19 ft 21 kts 359°
2026-05-04 00:51 25.79836 -80.28821 20 ft 21 kts 356°
2026-05-04 00:51 25.79907 -80.28821 20 ft 0 kts 20°
2026-05-04 00:51 25.79932 -80.28775 20 ft 13 kts 81°
2026-05-04 00:52 25.79939 -80.28676 20 ft 13 kts 86°
2026-05-04 00:52 25.79942 -80.28576 20 ft 13 kts 87°
2026-05-04 00:52 25.79944 -80.28476 19 ft 13 kts 98°
2026-05-04 00:52 25.79879 -80.28424 21 ft 12 kts 164°
2026-05-04 00:53 25.79835 -80.28417 19 ft 2 kts 176°
2026-05-04 00:53 25.79833 -80.28417 19 ft 0 kts 176°